Погода в Амдерме

Погода в Амдерме : погода сейчас, прогноз погоды и архив. Всё, что Вы хотите узнать о погоде в Амдерме!

Хотите узнать прогноз погоды в Амдерме? Тогда Вам сюда: Погода в Амдерме

Поиск расширенной информации на нашем сайте:

Другие новости

Новости СМИ2

Главная страница сайта

Новости сайта

03.07.2017

Напоминаем, что на нашем специализированном сайте Метеоцентр.Азия вы можете получить высокодетализированные автоматические прогнозы погоды по пунктам России, СНГ и мира в авиационном формате (включающие направление и скорость ветра, видимость, явления погоды, количество и форму облачности, нижнюю и верхнюю границу облачности).


Погода в Амдерме - сегодня

Время (UTC), дата Ветер
(°,м/с) 
Видим.   Явления Облачность Т
(°С)
Тd
(°С)
f(%) Тe
(°С)
Pmin
(гПа)
dP
(гПа)
Po
(мм)
O2
(г/м3)
Тmin Tmax R s Состояние
почвы
21 19.02.18 190 (Ю) 10 км    9/9 600 м 
[Sc]
-16.6 -19.2 80 -20  1027  -0.2  765  330           
00 20.02.18 230 (ЮЗ) 10 км    9/9 600 м 
[Sc]
-15.9 -18.6 80 -21  1026.9  -0.1  765  329           
03 20.02.18 150 (ЮВ) 10 км    3/0 средняя, верхняя 
[Ac trans|Ci fib]
-20.8 -23.3 80 -26  1027  765  335  -21.7    0.0  18  неравномерный
сухой снег
100% 
06 20.02.18 150 (ЮВ) 10 км    8/5 600 м средняя, верхняя 
[Sc|Ac trans|Ci fib]
-21.2 -23.7 80 -26  1027.4  0.4  765  336           
09 20.02.18 160 (Ю) 10 км    3/0 верхняя 
[Cc]
-22.8 -25.3 80 -29  1028.3  0.7  766  338           
12 20.02.18 150 (ЮВ) 10 км  местами туман поземный  3/0 средняя 
[Ac trans]
-23.6 -26.1 80 -28  1028.6  0.3  766  340           
15 20.02.18 110 (В) 10 км    ясно 
-22.1 -24.7 79 -27  1028.7  0.3  766  338    -20.4       
18 20.02.18 090 (В) 10 км    ясно 
-22.7 -25.2 80 -30  1029.2  0.3  766  339           
00 21.02.18 100 (В) 7{11}  10 км  позёмок  ясно 
-23.5 -26.7 75 -32  1030.1  0.8  767  340           
03 21.02.18 080 (В) 6{10}  4000 м  позёмок  4/3 600 м средняя 
[Sc|Ac trans]
-23.8 -26.3 80 -32  1030.1  767  340  -24.6      17  неравномерный
сухой снег
100% 
09 21.02.18 110 (В) 4000 м  мгла  1/0 средняя 
[Ac lent]
-23.6 -26.1 80 -31  1030.6  0.2  767  340           
15 21.02.18 110 (В) 4{12}  4000 м  мгла  ясно 
-26.2 -28.7 79 -33  1030.7  0.4  767  344    -22.3       
03 22.02.18 080 (В) 6{14}  4000 м  позёмок  ясно 
-25.4 -28.5 75 -34  1032.7  0.9  769  343  -26.4      17  неравномерный
сухой снег
100% 
06 22.02.18 090 (В) 4000 м  мгла  3/0 
-24.1 -26.6 80 -30  1033.1  0.4  769  342           
09 22.02.18 070 (В) 10 км    3/3 300 м средняя 
[Cu Sc|Ac trans]
-23.8 -26.3 80 -29  1032.3  -0.7  769  341           
12 22.02.18 040 (СВ) 4000 м  мгла  9/9 600 м 
[Sc]
-19.2 -21.8 80 -27  1032  -0.1  769  335           
15 22.02.18 040 (СВ) 7{10}  4000 м  позёмок  9/9 300 м 
[Sc]
-17.1 -19 85 -24  1031.5  -0.4  768  332    -16.8       
03 23.02.18 040 (СВ) 7{11}  10 км  позёмок  ясно 
-21.4 -23.3 85 -30  1033  769  338  -21.9      17  неравномерный
мокрый или
старый снег
100% 
06 23.02.18 020 (С) 10 км    ясно 
-18.5 -20.4 85 -23  1032.4  -0.6  769  334           
09 23.02.18 010 (С) 10 км    8/3 600 м средняя, верхняя 
[Sc|Ac trans|Ci fib]
-16.9 -18.8 85 -22  1013.4  -0.8  768  331           
12 23.02.18 010 (С) 4000 м  слаб. ливневой снег  10/10 600 м кучево-дожд. 
[Cb cap]
-15.8 -17.7 85 -22  1030.8  -0.6  768  330           
15 23.02.18 030 (СВ) 10-13{14}  4000 м  слаб. ливневой снег  10/10 600 м кучево-дожд. 
[Cb cap]
-15.7 -17.6 85 -24  1030.1  -0.7  767  329    -15  0.2     
00 24.02.18 040 (СВ) 10-14{15}  4000 м  слаб. ливневой снег  10/10 300 м кучево-дожд. 
[Cb cap]
-16.6 -18.5 85 -25  1030.7  -0.1  768  331           
03 24.02.18 040 (СВ) 10-13{16}  4000 м  слаб. ливневой снег  10/10 600 м кучево-дожд. 
[Cb cap]
-15.9 -17.8 85 -25  1030.4  -0.3  767  330  -17.4    0.5  17  неравномерный
сухой снег
100% 
15 24.02.18 030 (СВ) 10-14{15}  4000 м  метель  1/1 600 м 
[Sc]
-18.6 -21.9 75 -28  1030.8  -0.3  768  334    -15.7  0.2     
Время (UTC), дата Ветер
(°,м/с) 
Видим.   Явления Облачность Т
(°С)
Тd
(°С)
f(%) Тe
(°С)
Pmin
(гПа)
dP
(гПа)
Po
(мм)
O2
(г/м3)
Тmin Tmax R s Состояние
почвы

Для получения пояснительной информации подведите курсор к названию столбца.

ПОГОДА в Амдерме - архив

Всё, что Вы хотите узнать о погоде в Амдерме - удобно и подробно!

Выберите нужную дату (начиная с 1 января 2015* года) и нажмите кнопку "Найти".
Будут отображены архивные сводки погоды по пункту Амдерма, начиная с указанной даты.


Отображать данные в формате CSV (для использования в таблицах Excel)


Внимание! Наш архив погоды предназначен исключительно для личного некоммерческого использования в познавательных целях. Если Вам необходимы официальные справки о состоянии погоды (для производственных, юридических, коммерческих и т.п. целей), обращайтесь в органы Росгидромета.

*Примечание: данная дата относится к архиву по метеостанциям СССР (Россия, СНГ, Балтия).
Архив по метеостанциям Зарубежной Европы и Азии (кроме Китая) хранится 10 дней, по другим регионам земного шара (Китай, Африка, Америка, Австралия, Океания) - 1 день.

Амдерма - район местоположения метеостанции


Название, широта, долгота, высота метеостанции:
Амдерма 69.8°ш. 61.7°д. 49 м над ур. моря [Российская Федерация]

Дополнительная информация

В oтличие oт бoльшинства пoгoдных сайтoв мы публикуем пoдрoбную метеoинфoрмацию в детальнoм прoфессиoнальнoм фoрмате.

Характеристики температуры и влажнoсти вoздуха измеряются на высoте 2 м в тени вдали oт зданий и деревьев.
Скoрoсть ветра измеряется на высoте 10 м (на урoвне рoста челoвека скoрoсть ветра ниже в 1.5-2 раза). Если метеoстанция нахoдится в гoрoде или в лесу, тo скoрoсть ветра занижена на 2-4 м/с пo сравнению с oткрытым местoм. Скoрoсть ветра над акватoриями крупных рек и oзёр, а также на вершинах хoлмoв на 2-5 м/с выше, чем в oбычных услoвиях.
Атмoсфернoе давление в разных тoчках местнoсти мoжет значительнo oтличаться oт давления на метеoстанции, в зависимoсти oт услoвий рельефа (при пoдъёме на 10 м давление пoнижается примернo на 1 мм рт.ст.).